Regional Weather Roundup
Issued by NWS Albany, NY

Home | Current Version | Previous Version | Text Only | Print | Product List | Glossary On
Versions: 1 2 3 4 5 6 7 8 9 10 11 12 13 14 15 16 17 18 19 20 21 22 23 24 25 26 27 28 29 30 31 32 33 34 35 36 37 38 39 40 41 42 43 44 45 46 47 48 49 50
000
ASUS41 KALY 222110
RWRALY

NEW YORK STATE HOURLY WEATHER ROUNDUP
NATIONAL WEATHER SERVICE ALBANY NY
500 PM EDT FRI MAY 22 2015

NOTE: "FAIR" INDICATES FEW OR NO CLOUDS BELOW 12,000 FEET WITH NO
SIGNIFICANT WEATHER AND/OR NO OBSTRUCTIONS TO VISIBILITY.

NYZ032-033-038>043-046>054-057>066-NYZ062>081-222200-
EAST


CITY           SKY/WX    TMP DP  RH WIND       PRES   REMARKS
ALBANY         MOSUNNY   64  27  24 NW21G35   29.98R
GLENS FALLS    PTSUNNY   63  27  25 NW14G24   29.94R
POUGHKEEPSIE   MOSUNNY   71  29  21 W15G30    29.93R
NEWBURGH       MOSUNNY   68  37  32 NW17G28   29.95R
MONTGOMERY     MOSUNNY   69  36  29 NW15G24   29.95R
WHITE PLAINS   PTSUNNY   67  38  34 NW13G20   29.93R
ISLIP          PTSUNNY   71  38  29 W13G24    29.91R
NEW YORK CITY  CLOUDY    71  39  31 W17G26    29.94R
CENTRAL PARK   CLOUDY    70  38  31 W12G29    29.97R
$$

NYZ005>009-017-018-044>046-055-056-222200-
CENTRAL


CITY           SKY/WX    TMP DP  RH WIND       PRES   REMARKS
FULTON         SUNNY     57  33  40 W22G30    30.08R
SYRACUSE       PTSUNNY   58  31  35 NW24G30   30.06R
ROME           MOSUNNY   57  32  38 NW20      30.04R
ELMIRA         MOSUNNY   64  33  31 NW15G21   30.04R
BINGHAMTON     MOSUNNY   57  35  43 NW10G23   30.02R
MONTICELLO     SUNNY     63  34  34 NW16G23   30.00R
$$

NYZ026>034-041>043-222200-
NORTH


CITY           SKY/WX    TMP DP  RH WIND       PRES   REMARKS
WATERTOWN      PTSUNNY   54  37  52 SW9G21    30.04S
FORT DRUM      NOT AVBL
MASSENA        PTSUNNY   51  25  36 NW13      30.04R
SARANAC LAKE   CLOUDY    50  26  39 NW9       29.96R
PLATTSBURGH    CLOUDY    54  28  36 NW13G21   29.97R
$$

NYZ001>004-010>016-019>021-222200-
WEST


CITY           SKY/WX    TMP DP  RH WIND       PRES   REMARKS
NIAGARA FALLS  MOSUNNY   58  31  35 N17       30.12R
BUFFALO        PTSUNNY   56  39  53 SW12      30.12R
DUNKIRK        LGT RAIN  55  39  54 W17G25    30.15R
JAMESTOWN      PTSUNNY   54  34  47 W17G25    30.17R
WELLSVILLE     MOSUNNY   58  29  33 NW21G28   30.11R
ROCHESTER      PTSUNNY   57  30  35 NW10G21   30.10R
PENN YAN       CLOUDY    58  31  35 W13G21    30.07R
$$

             KEY
       WCI = WIND CHILL INDEX
       VSB = VISIBILITY
       HX  = HEAT INDEX
$$


USA.gov is the U.S. government's official web portal to all federal, state and local government web resources and services.